Southlake's Hourly Summary for Wednesday, March 15, 2017
Hour Temp
(f)
RH
(%)
Solar Rad.
(MJ/m2)
Rainfall
(in)
Wind
(mph)
3/15/2017 12:00 AM 53 0 0 0 4.92
3/15/2017 1:00 AM 50 0 0 0 6.49
3/15/2017 2:00 AM 48 0 0 0 5.87
3/15/2017 3:00 AM 47 0 0 0 6.04
3/15/2017 4:00 AM 46 0 0 0 5.59
3/15/2017 5:00 AM 46 13 0 0 4.92
3/15/2017 6:00 AM 45 3 0 0 4.7
3/15/2017 7:00 AM 44 5 0 0 4.36
3/15/2017 8:00 AM 44 1 0.2 0 4.87
3/15/2017 9:00 AM 47 17 0.84 0 6.54
3/15/2017 10:00 AM 49 61 1.07 0 5.92
3/15/2017 11:00 AM 52 56 1.89 0 5.14
3/15/2017 12:00 PM 55 50 2.7 0 4.98
3/15/2017 1:00 PM 59 46 3.25 0 4.81
3/15/2017 2:00 PM 61 59 3.19 0 4.98
3/15/2017 3:00 PM 64 26 2.89 0 4.59
3/15/2017 4:00 PM 66 64 2.36 0 5.14
3/15/2017 5:00 PM 66 54 1.62 0 5.14
3/15/2017 6:00 PM 65 58 0.82 0 5.87
3/15/2017 7:00 PM 63 71 0.16 0 5.42
3/15/2017 8:00 PM 61 86 0 0 3.69
3/15/2017 9:00 PM 59 77 0 0 4.25
3/15/2017 10:00 PM 58 49 0 0 3.13
3/15/2017 11:00 PM 56 18 0 0 3.36
Data Summary 54 33 20.99 0.00 5.03